FW2156 Weather Reports


Display with metric or nautical units.
time (UTC)temp
F
wind
direction
speed
MPH
gust
MPH
rain 1hr
in
rain 24hr
in
rain mn
in
humidity
%
barometer
mb
20260904204815 58 252 1.0 2.0 0.00 0.00 0.01 75 1011.2
20260904204315 58 21 3.0 5.0 0.00 0.00 0.01 75 1010.8
20260904203813 58 191 2.0 3.0 0.00 0.00 0.01 76 1011.2
20260904203314 58 257 1.0 1.0 0.00 0.00 0.01 77 1010.8
20260904202815 58 269 2.0 2.0 0.00 0.00 0.01 76 1010.8
20260904202316 58 208 1.0 2.0 0.00 0.00 0.01 76 1010.8
20260904201814 58 235 3.0 3.0 0.00 0.00 0.01 76 1010.8
20260904201314 58 50 1.0 5.0 0.00 0.00 0.01 75 1010.8
20260904200813 58 244 2.0 3.0 0.00 0.00 0.01 75 1010.8
20260904200313 58 231 0.0 1.0 0.00 0.00 0.01 75 1010.8
20260904195814 58 257 0.0 1.0 0.00 0.00 0.01 75 1010.8
20260904195312 58 307 3.0 6.0 0.00 0.00 0.01 74 1010.8
20260904194813 58 358 0.0 1.0 0.00 0.00 0.01 75 1010.8
20260904194312 58 70 2.0 2.0 0.00 0.00 0.01 75 1010.5
20260904193813 58 96 3.0 5.0 0.00 0.00 0.01 75 1010.5
20260904193313 58 344 2.0 5.0 0.00 0.00 0.01 74 1010.5
20260904192812 57 274 3.0 7.0 0.00 0.00 0.01 75 1010.2
20260904192313 57 325 1.0 1.0 0.00 0.00 0.01 77 1010.2
20260904191813 57 263 0.0 2.0 0.00 0.00 0.01 77 1010.2
20260904191311 57 247 2.0 2.0 0.00 0.00 0.01 79 1010.2
20260904190822 57 228 0.0 1.0 0.00 0.00 0.01 79 1010.2
20260904190314 57 252 4.0 6.0 0.00 0.00 0.01 79 1010.2
20260904185812 57 292 3.0 5.0 0.00 0.00 0.01 80 1010.2
20260904185311 57 56 2.0 2.0 0.00 0.00 0.01 81 1010.2
20260904184812 57 165 1.0 2.0 0.00 0.00 0.01 81 1010.2
20260904184313 56 45 1.0 2.0 0.00 0.00 0.01 82 1010.5
20260904183815 56 38 3.0 3.0 0.00 0.00 0.01 82 1010.5
20260904183310 56 161 2.0 3.0 0.00 0.00 0.01 83 1010.5
20260904182812 56 26 1.0 2.0 0.00 0.00 0.01 84 1010.5
20260904182310 56 224 0.0 1.0 0.00 0.00 0.01 83 1010.5
20260904181814 55 197 2.0 2.0 0.00 0.00 0.01 83 1010.5
20260904181312 55 49 4.0 6.0 0.00 0.00 0.01 83 1010.5
20260904180811 55 332 1.0 3.0 0.00 0.00 0.01 84 1010.2
20260904180313 55 106 3.0 3.0 0.00 0.00 0.01 84 1010.2
20260904175813 55 252 1.0 2.0 0.00 0.00 0.01 86 1010.2
20260904175310 55 207 1.0 2.0 0.00 0.00 0.01 86 1010.2
20260904174813 54 98 3.0 5.0 0.00 0.00 0.01 85 1010.2
20260904174313 54 97 3.0 5.0 0.00 0.00 0.01 87 1010.2
20260904173813 54 55 2.0 2.0 0.00 0.00 0.01 88 1010.2
20260904173315 54 108 2.0 3.0 0.00 0.00 0.01 88 1010.2
20260904172811 54 201 1.0 1.0 0.00 0.00 0.01 89 1010.2
20260904172318 54 48 2.0 3.0 0.00 0.00 0.00 87 1010.2
20260904171819 53 278 2.0 2.0 0.00 0.00 0.00 86 1010.2
20260904171318 53 43 1.0 3.0 0.00 0.00 0.00 86 1010.2
20260904170818 53 164 0.0 1.0 0.00 0.00 0.00 86 1010.2
20260904170322 53 49 1.0 2.0 0.00 0.00 0.00 88 1010.2
20260904165817 53 132 2.0 3.0 0.00 0.00 0.00 87 1010.2
20260904165317 53 31 2.0 2.0 0.00 0.00 0.00 87 1010.2
20260904164816 53 81 2.0 2.0 0.00 0.00 0.00 87 1010.2
20260904164317 53 15 3.0 3.0 0.00 0.00 0.00 87 1010.2
20260904163816 53 55 2.0 3.0 0.00 0.00 0.00 87 1009.8
20260904163317 53 131 0.0 1.0 0.00 0.00 0.00 88 1010.2
20260904162815 53 34 2.0 3.0 0.00 0.00 0.00 88 1010.2
20260904162315 53 71 2.0 3.0 0.00 0.00 0.00 87 1010.2
20260904161816 53 180 1.0 2.0 0.00 0.00 0.00 87 1010.2
20260904161315 53 182 0.0 1.0 0.00 0.00 0.00 86 1009.8
20260904160814 53 301 3.0 6.0 0.00 0.00 0.00 83 1009.8
20260904160314 53 117 3.0 3.0 0.00 0.00 0.00 81 1009.8
20260904155813 53 38 1.0 2.0 0.00 0.00 0.00 80 1009.8
20260904155313 53 39 2.0 5.0 0.00 0.00 0.00 79 1009.8
20260904154814 53 160 0.0 1.0 0.00 0.00 0.00 76 1009.8
20260904154315 53 54 0.0 1.0 0.00 0.00 0.00 75 1009.5
20260904153741 53 187 0.0 0.0 0.00 0.00 0.00 75 1009.5
20260904153240 53 45 0.0 1.0 0.00 0.00 0.00 74 1009.1
20260904152740 53 96 1.0 1.0 0.00 0.00 0.00 74 1009.5
20260904152240 53 252 0.0 1.0 0.00 0.00 0.00 74 1009.5
20260904151737 53 70 0.0 1.0 0.00 0.00 0.00 73 1009.1
20260904151241 53 130 1.0 1.0 0.00 0.00 0.00 73 1009.1
20260904150741 53 245 0.0 1.0 0.00 0.00 0.00 73 1009.1
20260904150239 53 123 0.0 0.0 0.00 0.00 0.00 73 1009.1
20260904145738 53 175 0.0 1.0 0.00 0.00 0.00 73 1008.8
20260904145238 53 13 1.0 1.0 0.00 0.00 0.00 73 1008.8
20260904144738 53 51 0.0 1.0 0.00 0.00 0.00 73 1008.5
20260904144238 53 4 0.0 1.0 0.00 0.00 0.00 73 1008.8
20260904143737 53 119 0.0 0.0 0.00 0.00 0.00 72 1008.5
20260904143238 53 169 0.0 0.0 0.00 0.00 0.00 71 1008.5
20260904142716 53 289 1.0 1.0 0.00 0.00 0.00 70 1008.1
20260904142142 52 221 0.0 1.0 0.00 0.00 0.00 70 1008.5
20260904141641 52 294 2.0 2.0 0.00 0.00 0.00 70 1008.1
20260904141136 52 292 3.0 5.0 0.00 0.00 0.00 69 1008.1
20260904140641 52 237 2.0 2.0 0.00 0.00 0.00 70 1007.8
20260904140142 52 258 2.0 3.0 0.00 0.00 0.00 70 1007.8
20260904135640 51 282 2.0 2.0 0.00 0.00 0.00 71 1007.8
20260904135143 51 286 4.0 6.0 0.00 0.00 0.00 71 1007.8
20260904134640 51 280 2.0 3.0 0.00 0.00 0.00 72 1007.5
20260904134126 51 250 2.0 2.0 0.00 0.00 0.00 72 1007.5
20260904133626 50 247 1.0 1.0 0.00 0.00 0.00 72 1007.5
20260904133127 50 262 2.0 2.0 0.00 0.00 0.00 72 1007.5
20260904132629 49 253 3.0 3.0 0.00 0.00 0.00 72 1007.1
20260904132128 49 238 1.0 2.0 0.00 0.00 0.00 73 1007.5
20260904131626 48 314 2.0 3.0 0.00 0.00 0.00 74 1007.5
20260904131125 48 292 1.0 1.0 0.00 0.00 0.00 75 1007.1
20260904130625 47 252 0.0 0.0 0.00 0.00 0.00 77 1007.1
20260904130125 47 301 0.0 1.0 0.00 0.00 0.00 79 1007.1
20260904125624 47 218 0.0 0.0 0.00 0.00 0.00 79 1007.1
20260904125123 47 220 0.0 0.0 0.00 0.00 0.00 80 1007.1
20260904124623 47 213 0.0 0.0 0.00 0.00 0.00 81 1007.1
20260904124123 47 223 0.0 0.0 0.00 0.00 0.00 81 1007.1
20260904123622 47 223 0.0 0.0 0.00 0.00 0.00 81 1007.1
20260904123124 48 221 0.0 0.0 0.00 0.00 0.00 81 1007.1
20260904122623 48 275 1.0 1.0 0.00 0.00 0.00 80 1006.8
20260904122121 48 221 0.0 0.0 0.00 0.00 0.00 81 1006.8
20260904121620 48 249 0.0 1.0 0.00 0.00 0.00 80 1006.8
20260904121123 48 250 0.0 1.0 0.00 0.00 0.00 80 1006.8
20260904120619 48 279 0.0 1.0 0.00 0.00 0.00 80 1006.8
20260904120120 48 233 1.0 1.0 0.00 0.00 0.00 79 1006.8
20260904115618 48 278 1.0 2.0 0.00 0.00 0.00 79 1006.8
20260904115119 48 217 0.0 0.0 0.00 0.00 0.00 79 1006.8
20260904114618 48 255 0.0 1.0 0.00 0.00 0.00 79 1006.8
20260904114117 48 211 0.0 0.0 0.00 0.00 0.00 80 1006.8
20260904113617 48 213 0.0 0.0 0.00 0.00 0.00 80 1006.8
20260904113116 48 193 0.0 0.0 0.00 0.00 0.00 79 1006.4
20260904112617 48 187 0.0 0.0 0.00 0.00 0.00 79 1006.4
20260904112116 48 185 0.0 1.0 0.00 0.00 0.00 79 1006.4
20260904111615 48 176 0.0 0.0 0.00 0.00 0.00 80 1006.4
20260904111115 48 186 0.0 0.0 0.00 0.00 0.00 80 1006.4
20260904110636 48 177 0.0 0.0 0.00 0.00 0.00 80 1006.4
20260904110145 48 218 0.0 1.0 0.00 0.00 0.00 79 1006.4
20260904105637 48 147 1.0 1.0 0.00 0.00 0.00 77 1006.4
20260904105142 49 190 0.0 0.0 0.00 0.00 0.00 76 1006.1
20260904104714 49 176 0.0 0.0 0.00 0.00 0.00 75 1006.1
20260904104215 49 194 0.0 0.0 0.00 0.00 0.00 76 1006.1
20260904103713 49 202 0.0 0.0 0.00 0.00 0.00 77 1005.8
20260904103240 49 190 0.0 0.0 0.00 0.00 0.00 76 1006.1
20260904102736 48 154 0.0 0.0 0.00 0.00 0.00 75 1005.8
20260904102239 48 213 0.0 0.0 0.00 0.00 0.00 73 1005.8
20260904101738 48 218 0.0 0.0 0.00 0.00 0.00 74 1005.8
20260904101312 48 223 0.0 0.0 0.00 0.00 0.00 75 1005.8
20260904100814 48 214 0.0 0.0 0.00 0.00 0.00 76 1005.8
20260904100310 48 231 0.0 0.0 0.00 0.00 0.00 77 1005.8
20260904095738 48 215 0.0 0.0 0.00 0.00 0.00 76 1005.4
20260904095240 48 239 0.0 1.0 0.00 0.00 0.00 78 1005.4
20260904094741 48 284 1.0 2.0 0.00 0.00 0.00 78 1005.4
20260904094240 48 255 0.0 1.0 0.00 0.00 0.00 78 1005.4
20260904093741 48 253 1.0 1.0 0.00 0.00 0.00 78 1005.4
20260904093240 48 219 0.0 0.0 0.00 0.00 0.00 77 1005.8
20260904092742 48 217 0.0 0.0 0.00 0.00 0.00 79 1005.4
20260904092311 48 192 0.0 0.0 0.00 0.00 0.00 79 1005.8
20260904091814 48 189 0.0 0.0 0.00 0.00 0.00 78 1005.8
20260904091312 48 203 0.0 0.0 0.00 0.00 0.00 76 1005.4
20260904090812 48 191 0.0 0.0 0.00 0.00 0.00 76 1005.4
20260904090242 48 210 0.0 0.0 0.00 0.00 0.00 76 1005.8
20260904085737 47 212 0.0 0.0 0.00 0.00 0.00 78 1005.8
20260904085236 47 211 0.0 0.0 0.00 0.00 0.00 79 1005.4
20260904084737 47 248 0.0 0.0 0.00 0.00 0.00 78 1005.1
20260904084237 47 237 0.0 1.0 0.00 0.00 0.00 79 1005.1
20260904083736 48 235 1.0 1.0 0.00 0.00 0.00 80 1005.8
20260904083235 48 252 1.0 1.0 0.00 0.00 0.00 78 1005.8
20260904082728 48 221 0.0 0.0 0.00 0.00 0.00 81 1005.8
20260904082228 48 257 0.0 0.0 0.00 0.00 0.00 81 1005.8
20260904081730 48 249 0.0 1.0 0.00 0.00 0.00 80 1005.8
20260904081226 48 269 1.0 1.0 0.00 0.00 0.00 80 1005.8
20260904080726 48 257 0.0 0.0 0.00 0.00 0.00 79 1005.8
20260904080227 48 251 1.0 1.0 0.00 0.00 0.00 78 1005.8
20260904075726 49 247 0.0 1.0 0.00 0.00 0.00 78 1005.8
20260904075227 49 226 0.0 1.0 0.00 0.00 0.00 78 1005.8
20260904074726 49 234 0.0 0.0 0.00 0.00 0.00 78 1005.8
20260904074225 49 229 0.0 0.0 0.00 0.00 0.00 78 1005.8
20260904073725 49 268 0.0 0.0 0.00 0.00 0.00 78 1005.8
20260904073225 49 170 0.0 0.0 0.00 0.00 0.00 77 1005.8
20260904072724 50 79 0.0 0.0 0.00 0.00 0.00 77 1005.8
20260904072226 50 154 0.0 0.0 0.00 0.00 0.00 77 1005.8
20260904071725 50 206 0.0 1.0 0.00 0.00 0.00 76 1005.4
20260904071224 50 207 0.0 0.0 0.00 0.00 0.00 76 1005.8
20260904070724 50 185 0.0 0.0 0.00 0.00 0.00 75 1005.4
20260904070224 50 171 0.0 0.0 0.00 0.00 0.00 75 1005.4
20260904065724 50 223 0.0 1.0 0.00 0.00 0.00 75 1005.4
20260904065223 50 207 0.0 0.0 0.00 0.00 0.00 75 1005.4
20260904064722 51 200 0.0 1.0 0.00 0.00 0.00 75 1005.1
20260904064225 51 201 0.0 1.0 0.00 0.00 0.00 75 1005.4
20260904063722 51 240 0.0 0.0 0.00 0.00 0.00 74 1005.1
20260904063226 51 185 0.0 0.0 0.00 0.00 0.00 74 1005.1
20260904062723 51 210 0.0 0.0 0.00 0.00 0.00 74 1005.1
20260904062224 51 203 0.0 0.0 0.00 0.00 0.00 74 1005.1
20260904061722 51 189 0.0 0.0 0.00 0.00 0.00 74 1004.7
20260904061221 52 197 0.0 1.0 0.00 0.00 0.00 74 1004.7
20260904060720 52 217 0.0 1.0 0.00 0.00 0.00 74 1004.7
20260904060141 52 271 0.0 1.0 0.00 0.00 0.00 74 1004.7
20260904055639 52 196 0.0 0.0 0.00 0.00 0.10 73 1004.7
20260904055218 53 145 0.0 0.0 0.00 0.00 0.10 71 1004.7
20260904054718 53 195 0.0 2.0 0.00 0.00 0.10 70 1005.1
20260904054218 53 124 1.0 2.0 0.00 0.00 0.10 70 1004.7
20260904053716 53 176 0.0 0.0 0.00 0.00 0.10 70 1004.7
20260904053218 53 131 0.0 1.0 0.00 0.00 0.10 70 1004.7
20260904052717 53 188 0.0 0.0 0.00 0.00 0.10 70 1004.4
20260904052218 54 193 0.0 0.0 0.00 0.00 0.10 69 1004.7
20260904051717 54 195 0.0 0.0 0.00 0.00 0.10 69 1004.4
20260904051217 54 208 0.0 0.0 0.00 0.00 0.10 70 1004.4
20260904050715 54 197 0.0 0.0 0.00 0.00 0.10 69 1004.7
20260904050215 55 193 0.0 0.0 0.00 0.00 0.10 70 1004.4
20260904045715 55 209 0.0 0.0 0.00 0.00 0.10 68 1004.4
20260904045213 55 226 0.0 0.0 0.00 0.00 0.10 68 1004.4
20260904044714 55 225 0.0 0.0 0.00 0.00 0.10 68 1004.4
20260904044214 55 223 0.0 0.0 0.00 0.00 0.10 69 1004.4
20260904043714 55 215 0.0 0.0 0.00 0.00 0.10 68 1004.4
20260904043213 56 212 0.0 0.0 0.00 0.00 0.10 68 1004.4
20260904042714 56 207 0.0 0.0 0.00 0.00 0.10 67 1004.4
20260904042214 56 226 0.0 0.0 0.00 0.00 0.10 67 1004.4
20260904041714 57 273 1.0 1.0 0.00 0.00 0.10 67 1004.4
20260904041212 57 183 0.0 0.0 0.00 0.00 0.10 68 1004.4
20260904040641 57 196 0.0 0.0 0.00 0.00 0.10 67 1004.4
20260904040141 58 204 0.0 0.0 0.00 0.00 0.10 68 1004.4
20260904035643 58 178 0.0 0.0 0.00 0.00 0.10 66 1004.4
20260904035140 59 226 0.0 0.0 0.00 0.00 0.10 64 1004.4
20260904034637 59 230 0.0 0.0 0.00 0.00 0.10 63 1004.4
20260904034136 59 242 0.0 1.0 0.00 0.00 0.10 62 1004.4
20260904033638 59 276 1.0 2.0 0.00 0.00 0.10 62 1004.7
20260904033142 59 329 2.0 2.0 0.00 0.00 0.10 61 1004.7
20260904032636 60 294 1.0 2.0 0.00 0.00 0.10 61 1004.7
20260904032139 60 231 2.0 3.0 0.00 0.00 0.10 62 1004.7
20260904031643 60 242 0.0 1.0 0.00 0.00 0.10 63 1004.7
20260904031142 61 207 0.0 1.0 0.00 0.00 0.10 63 1004.7
20260904030642 61 250 0.0 1.0 0.00 0.00 0.10 62 1004.7
20260904030137 62 273 1.0 2.0 0.00 0.00 0.10 61 1004.7
20260904025637 62 269 1.0 2.0 0.00 0.00 0.10 59 1004.7
20260904025136 62 306 2.0 2.0 0.00 0.00 0.10 58 1004.7
20260904024637 62 238 2.0 3.0 0.00 0.00 0.10 57 1004.4
20260904024134 62 244 3.0 5.0 0.00 0.00 0.10 55 1004.7
20260904023542 62 281 2.0 3.0 0.00 0.00 0.10 55 1004.4
20260904023042 62 324 4.0 6.0 0.00 0.00 0.10 69 1004.4
20260904022545 62 267 5.0 7.0 0.00 0.00 0.10 76 1004.1
20260904022043 62 268 2.0 2.0 0.00 0.00 0.10 77 1004.1
20260904021542 62 297 0.0 0.0 0.00 0.00 0.10 76 1003.7
20260904021043 62 265 0.0 1.0 0.00 0.00 0.10 75 1003.7
20260904020540 62 345 1.0 1.0 0.00 0.00 0.10 74 1003.7
20260904020040 62 1 1.0 1.0 0.00 0.00 0.10 74 1003.4
20260904015541 63 91 1.0 2.0 0.00 0.00 0.10 74 1003.7
20260904015040 63 179 0.0 0.0 0.00 0.00 0.10 74 1003.7
20260904014540 63 83 0.0 2.0 0.00 0.00 0.10 75 1003.7
20260904014041 63 172 0.0 1.0 0.00 0.00 0.10 74 1003.7
20260904013540 64 136 2.0 2.0 0.00 0.00 0.10 74 1003.7
20260904013039 64 167 0.0 1.0 0.00 0.00 0.10 74 1003.7
20260904012539 64 144 1.0 2.0 0.00 0.00 0.10 73 1003.7
20260904012039 65 115 2.0 2.0 0.00 0.00 0.10 72 1003.4
20260904011538 65 132 1.0 2.0 0.00 0.00 0.10 71 1003.4
20260904011040 65 156 1.0 2.0 0.00 0.00 0.10 70 1003.4
20260904010541 65 124 3.0 6.0 0.00 0.00 0.10 69 1003.4
20260904010037 66 132 1.0 1.0 0.00 0.00 0.10 69 1003.7
20260904005535 66 130 2.0 2.0 0.00 0.00 0.10 69 1003.4
20260904005036 66 115 0.0 1.0 0.00 0.00 0.10 68 1003.4
20260904004534 67 130 2.0 2.0 0.00 0.00 0.10 68 1003.4
20260904004037 67 152 3.0 5.0 0.00 0.00 0.10 68 1003.4
20260904003535 67 133 2.0 3.0 0.00 0.00 0.10 67 1003.4
20260904003035 68 70 1.0 1.0 0.00 0.00 0.10 64 1003.4
20260904002536 68 107 0.0 1.0 0.00 0.00 0.10 63 1003.4
20260904002034 68 125 3.0 5.0 0.00 0.00 0.10 63 1003.4
20260904001535 68 57 1.0 1.0 0.00 0.00 0.10 60 1003.4
20260904001034 69 71 2.0 2.0 0.00 0.00 0.10 62 1003.4
20260904000534 69 197 0.0 1.0 0.00 0.00 0.10 60 1003.4
20260904000037 69 164 0.0 1.0 0.00 0.00 0.10 59 1003.4
20260903235534 69 202 0.0 1.0 0.00 0.00 0.10 60 1003.4
20260903235033 69 128 1.0 1.0 0.00 0.00 0.10 59 1003.4
20260903234533 69 4 1.0 2.0 0.00 0.00 0.10 56 1003.4
20260903234032 68 254 1.0 1.0 0.00 0.00 0.10 55 1003.4
20260903233531 68 108 1.0 1.0 0.00 0.00 0.10 57 1003.4
20260903233032 68 168 0.0 0.0 0.00 0.00 0.10 58 1003.4
20260903232529 69 232 0.0 0.0 0.00 0.00 0.10 58 1003.4
20260903232029 69 212 2.0 3.0 0.00 0.00 0.10 58 1003.4
20260903231531 69 105 2.0 2.0 0.00 0.00 0.10 58 1003.4
20260903231030 69 126 2.0 3.0 0.00 0.00 0.10 59 1003.4
20260903230527 68 304 0.0 1.0 0.00 0.00 0.10 56 1003.4
20260903230029 68 221 0.0 1.0 0.00 0.00 0.10 57 1003.4
20260903225529 68 103 1.0 2.0 0.00 0.00 0.10 56 1003.4
20260903225028 68 228 1.0 1.0 0.00 0.00 0.10 59 1003.4
20260903224527 68 195 0.0 1.0 0.00 0.00 0.10 61 1003.4
20260903224026 67 91 2.0 3.0 0.00 0.00 0.10 57 1003.4
20260903223527 67 172 0.0 1.0 0.00 0.00 0.10 61 1003.4
20260903223027 67 119 0.0 1.0 0.00 0.00 0.10 58 1003.0
20260903222526 66 152 1.0 1.0 0.00 0.00 0.10 60 1003.4
20260903222027 66 115 0.0 0.0 0.00 0.00 0.10 61 1003.0
20260903221526 65 229 0.0 1.0 0.00 0.00 0.10 58 1003.0
20260903221026 65 158 1.0 2.0 0.00 0.00 0.10 61 1003.0
20260903220525 64 319 0.0 1.0 0.00 0.00 0.10 60 1003.4
20260903220025 64 232 0.0 1.0 0.00 0.00 0.10 57 1003.4
20260903215523 63 291 1.0 1.0 0.00 0.00 0.10 59 1003.4
20260903215029 63 266 0.0 1.0 0.00 0.00 0.10 62 1003.4
20260903214524 63 246 1.0 1.0 0.00 0.00 0.10 62 1003.4
20260903214023 63 216 0.0 0.0 0.00 0.00 0.10 61 1003.4
20260903213523 63 255 1.0 1.0 0.00 0.00 0.10 63 1003.4
20260903213024 64 198 0.0 0.0 0.00 0.00 0.10 63 1003.4
20260903212523 64 118 0.0 0.0 0.00 0.00 0.10 64 1003.4
20260903212023 64 76 1.0 1.0 0.00 0.00 0.10 66 1003.4
20260903211524 64 128 1.0 2.0 0.00 0.00 0.10 67 1003.4
20260903211023 64 111 2.0 3.0 0.00 0.00 0.10 67 1003.0
20260903210525 64 90 1.0 1.0 0.00 0.00 0.10 67 1003.4
20260903210026 63 153 1.0 1.0 0.00 0.00 0.10 67 1003.4
20260903205522 63 250 0.0 1.0 0.00 0.00 0.10 66 1003.4